Location: Bathurst
(33.4193°S, 149.5775°E)
Time: 01:37:51
(UTC+10:00)

A-11 Canister half - Pass Details

Date: 21 June 2021
Orbit: 1513 x 1687 km, 47.2° (Epoch: 28 July)

Event Time Altitude Azimuth Distance (km) Brightness Sun altitude
Rises 17:39:47 0° 270° (W) 4,687 13.0 -8.0°
Reaches altitude 10° 17:43:05 10° 263° (W) 3,725 12.1 -8.7°
Maximum altitude 17:51:50 41° 195° (SSW) 2,174 9.8 -10.4°
Enters shadow 18:00:17 12° 128° (SE) 3,676 10.4 -12.0°
